sat.trackr.live / text

‹ back to catalog

STARLINK-5046

NORAD 53892 · 2022-119G

PAYLOAD ACTIVE UNKNOWN

§ Identity

Operator
Country
US
Launch date
2022-09-24
Launch site
AFETR
Launch vehicle
Mass (kg)
RCS (m²)

Purposes: comms

External: N2YO · Heavens-Above · Gunter

§ Orbital elements

Epoch: 2026-05-24T20:21:03.721536Z

Period
95.44 min
Inclination
53.2141°
Eccentricity
0.0001373
Mean motion
15.08851017 rev/d
Perigee alt
538.8 km
Apogee alt
540.7 km
Semi-major
6,917.8 km
B*
1.9679e-4
RAAN
342.1077°
Arg perigee
112.6580°
Mean anomaly
247.4557°
Rev number
20,318

§ Raw data

STARLINK-50461 53892U 22119G   26144.84795974  .00002846  00000+0  19679-3 0  99962 53892  53.2141 342.1077 0001373 112.6580 247.4557 15.08851017203180

JSON: /api/v1/satellites/53892 · /tle

For live sub-satellite position, see the globe view (requires WebGL).

§ Visibility from observer

Set your observer location to see the next 7 days of passes ≥ 10°. The values pass through the URL so the page stays shareable.

No JS? Fill the form by hand. The geolocation button needs JavaScript.